Lexington Weather

Lexington, Massachusetts, USA

46°F
4/22/2024 9:41am 
  • Lexington Conditions: Clear
  • Temperature: 45.5°F / 7.5°CWarmer 2.3°F than last hour.
  • Dew Point: 24.8°FDecreased 2.0°Fsince last hour.
  • Relative Humidity: 44%Decreased 8.0% since last hour.
  • Wind: Calm, 10-min avg: Calm, gust: 5 mph
  • Barometer: 29.97 in Steady
  • Visibility: 10 miles
  • Rain Today: 0.00 in
  •   

Regional Weather Roundup
for Boston, MA

        
000
ASUS41 KBOX 212010
RWRBOX

REGIONAL WEATHER ROUNDUP
NATIONAL WEATHER SERVICE BOSTON/NORTON MA
400 PM EDT SUN APR 21 2024

NOTE:  "FAIR" INDICATES FEW OR NO CLOUDS BELOW 12,000 FEET WITH NO 
SIGNIFICANT WEATHER AND/OR OBSTRUCTIONS TO VISIBILITY.

MAZALL-212100-
EASTERN MASSACHUSETTS
  
CITY           SKY/WX    TMP DP  RH WIND       PRES   REMARKS
BOSTON         CLOUDY    52  26  36 W18G25    29.86F                  
BEVERLY        CLOUDY    51  27  39 W10G23    29.83F                  
LAWRENCE       CLOUDY    51  25  36 W13G29    29.86F                  
BEDFORD        CLOUDY    50  25  37 W13G24    29.85F                  
NORWOOD        CLOUDY    53  27  36 W12G23    29.87F                  
MARSHFIELD     CLOUDY    54  25  32 SW9G16    29.85F                  
PLYMOUTH       CLOUDY    51  28  41 SW14G24   29.85F                  
TAUNTON        CLOUDY    54  25  32 W10G22    29.86F                  
NEW BEDFORD    CLOUDY    50  30  46 SW12      29.87F                  
$$

MAZALL-212100-
CAPE COD AND THE ISLANDS
  
CITY           SKY/WX    TMP DP  RH WIND       PRES   REMARKS
FALMOUTH       SUNNY     46  30  53 W20G29    29.89F                  
HYANNIS        CLOUDY    47  28  47 SW20      29.87F                  
CHATHAM        CLOUDY    48  35  60 SW9G23    29.89F                  
PROVINCETOWN   CLOUDY    49  35  58 SW17      29.87F                  
NANTUCKET      CLOUDY    46  37  71 SW15      29.91F                  
MARTHAS VNYRD  CLOUDY    48  33  56 SW9G21    29.89F                  
$$
 
MAZALL-212100-
CENTRAL AND WESTERN MASSACHUSETTS
  
CITY           SKY/WX    TMP DP  RH WIND       PRES   REMARKS
WORCESTER      CLOUDY    46  21  37 NW20G32   29.87F                  
FITCHBURG      CLOUDY    49  22  34 W17G31    29.89S                  
ORANGE         CLOUDY    47  23  38 VRB6G18   29.89F                  
SPRINGFIELD    NOT AVBL                                               
WESTFIELD      CLOUDY    50  22  33 NW10      29.90F                  
NORTH ADAMS    CLOUDY    47  23  38 W8G18     29.90F                  
PITTSFIELD     CLOUDY    44  22  41 W15       29.88F                  
$$
 
RIZALL-212100-
RHODE ISLAND
  
CITY           SKY/WX    TMP DP  RH WIND       PRES   REMARKS
PROVIDENCE     CLOUDY    52  27  38 NW10G22   29.88F                  
NEWPORT        CLOUDY    48  30  49 SW12G22   29.87F                  
BLOCK ISLAND   CLOUDY    48  33  56 SW18G24   29.91F                  
SMITHFIELD     CLOUDY    50  26  39 W14       29.87F                  
WESTERLY       CLOUDY    48  31  51 SW9G31    29.90F                  
$$
 
CTZALL-212100-
CONNECTICUT
  
CITY           SKY/WX    TMP DP  RH WIND       PRES   REMARKS
BRADLEY INTL   CLOUDY    52  25  35 NW13      29.91F                  
HARTFORD       CLOUDY    50  26  39 W14G21    29.91F                  
PLAINVILLE     MOCLDY    49  24  37 VRB7      29.91F                  
BRIDGEPORT     CLOUDY    52  25  35 W13G24    29.92F                  
DANBURY        CLOUDY    50  23  34 NW10      29.93F                  
GROTON         CLOUDY    49  32  52 SW16G25   29.90F                  
NEW HAVEN      CLOUDY    52  28  39 NW14G24   29.92F                  
CHESTER        CLOUDY    50  27  40 W8G14     29.90F                  
MERIDEN        CLOUDY    50  23  34 W9G18     29.92F                  
WILLIMANTIC    CLOUDY    49  25  39 W13G20    29.90F                  
OXFORD         CLOUDY    46  24  42 NW14      29.92F                  
$$

MEZ002-015-021-024-NHZ003-005-008-011-012-014-VTZ005-008-212100-
NORTHERN NEW ENGLAND
  
CITY           SKY/WX    TMP DP  RH WIND       PRES   REMARKS
PORTLAND ME    CLOUDY    48  35  60 S12G21    29.80F                  
BANGOR ME      CLOUDY    51  31  46 S15       29.76F                  
CONCORD NH     CLOUDY    50  23  34 W17G25    29.83F                  
MANCHESTER NH  CLOUDY    52  23  32 W18G29    29.84S                  
NASHUA NH      CLOUDY    51  24  34 W14G20    29.87S                  
PORTSMOUTH NH  NOT AVBL                                               
JAFFREY NH     CLOUDY    46  22  38 NW12G23   29.87F                  
KEENE NH       CLOUDY    46  23  40 W13G20    29.88F                  
BURLINGTON VT  PTSUNNY   49  24  37 SW13      29.83F                  
MT. WASHINGTON FOG       18  18 100 W43         N/A  VSB 1/16WCI  -5  
$$

NYZ052-076-212100-
EASTERN NEW YORK
  
CITY           SKY/WX    TMP DP  RH WIND       PRES   REMARKS
ALBANY         CLOUDY    47  25  42 W12       29.93F                  
NEW YORK CITY  CLOUDY    51  23  33 NW15G24   29.93F                  
$$
 
ANZALL-212100-
MARINE OBSERVATIONS
  
STATION/POSITION TIME  TEMP    WIND        PRES    VSBY  WAVE
                       AIR SEA DIR/SP/G                  HT/PER
                 (UTC) (F)     (DEG/KT/KT) (MB)    (MI)  (FT/S)
BOSTON BUOY      1950   48     270/ 12/ 14 1010.8F         1/10
BUZZARDS BAY     1900   45     240/ 20/ 21 1013.2F
NANTUCKET SOUND  1950   46 47  220/ 16/ 17 1011.9F         1/ 3
MASS BAY-STELLWA 1804   46 47  180/ 12/ 14 1012.1F  1 7/8  2/ 8
ISLE OF SHOALS   1900   50     230/ 15/ 17 1009.7F
S OF BLOCK IS    1956      45                N/A           2/10
$$

......................KEY.........................
  SKY/WX - SKY CONDITION/PRESENT WEATHER
  TMP    - TEMPERATURE IN FAHRENHEIT
  DWPT   - DEWPOINT IN FAHRENHEIT
  RH     - RELATIVE HUMIDITY IN PERCENT
  WIND   - DIRECTION AND SPEED IN MPH
  PRES   - MEAN SEA LEVEL PRESSURE IN INCHES OF HG
  WCI    - WIND CHILL INDEX
  VSB    - VISIBILITY IN MILES
  HX     - HEAT INDEX
  TC     - TEMPERATURE IN CELSIUS
  VRB    - VARIABLE WIND DIRECTION
  N/A    - NOT AVAILABLE
  
      

Other recent Regional Weather Roundups

Mon Apr 22, 9:10am EDT

Mon Apr 22, 8:10am EDT

Mon Apr 22, 7:10am EDT

Mon Apr 22, 6:10am EDT

Mon Apr 22, 5:10am EDT

Mon Apr 22, 4:10am EDT

Mon Apr 22, 3:10am EDT

Mon Apr 22, 2:10am EDT

Mon Apr 22, 1:10am EDT

Mon Apr 22, 12:10am EDT

Sun Apr 21, 11:10pm EDT

Sun Apr 21, 10:10pm EDT

Sun Apr 21, 9:10pm EDT

Sun Apr 21, 8:10pm EDT

Sun Apr 21, 7:10pm EDT

Sun Apr 21, 6:10pm EDT

Sun Apr 21, 5:10pm EDT

Sun Apr 21, 3:10pm EDT

Sun Apr 21, 2:10pm EDT

Sun Apr 21, 1:10pm EDT

Sun Apr 21, 12:10pm EDT

Sun Apr 21, 11:10am EDT

Sun Apr 21, 10:10am EDT

Sun Apr 21, 9:10am EDT

Sun Apr 21, 8:10am EDT

Sun Apr 21, 7:10am EDT

Sun Apr 21, 6:10am EDT

Sun Apr 21, 5:10am EDT

Sun Apr 21, 4:10am EDT

Sun Apr 21, 3:10am EDT

Sun Apr 21, 2:10am EDT

Sun Apr 21, 1:10am EDT

Sun Apr 21, 12:10am EDT

Sat Apr 20, 11:10pm EDT

Sat Apr 20, 10:10pm EDT

Sat Apr 20, 9:10pm EDT

Sat Apr 20, 8:10pm EDT

Sat Apr 20, 7:10pm EDT

Sat Apr 20, 6:10pm EDT

Sat Apr 20, 5:10pm EDT

Sat Apr 20, 4:10pm EDT

Sat Apr 20, 3:10pm EDT

Sat Apr 20, 2:10pm EDT

Sat Apr 20, 1:10pm EDT

Sat Apr 20, 12:10pm EDT

Sat Apr 20, 11:10am EDT

Sat Apr 20, 10:10am EDT

Sat Apr 20, 9:10am EDT

Sat Apr 20, 8:10am EDT

Sat Apr 20, 7:10am EDT

Sat Apr 20, 6:10am EDT

Sat Apr 20, 5:10am EDT

Sat Apr 20, 4:10am EDT

Sat Apr 20, 3:10am EDT

Sat Apr 20, 2:10am EDT

Sat Apr 20, 1:10am EDT

Sat Apr 20, 12:10am EDT

Fri Apr 19, 11:10pm EDT

Fri Apr 19, 10:10pm EDT

Fri Apr 19, 9:10pm EDT

Fri Apr 19, 8:10pm EDT

Fri Apr 19, 7:10pm EDT

Fri Apr 19, 6:10pm EDT

Fri Apr 19, 5:10pm EDT

Fri Apr 19, 4:10pm EDT

Fri Apr 19, 3:10pm EDT

Fri Apr 19, 2:10pm EDT

Fri Apr 19, 1:10pm EDT

Fri Apr 19, 12:10pm EDT

Fri Apr 19, 11:10am EDT

Fri Apr 19, 10:10am EDT

Fri Apr 19, 9:10am EDT

Fri Apr 19, 8:10am EDT

Fri Apr 19, 7:10am EDT

Fri Apr 19, 6:10am EDT

Fri Apr 19, 5:10am EDT

Fri Apr 19, 4:10am EDT

Fri Apr 19, 3:10am EDT

Fri Apr 19, 2:10am EDT

Fri Apr 19, 1:10am EDT

Fri Apr 19, 12:10am EDT

Thu Apr 18, 11:10pm EDT

Thu Apr 18, 10:10pm EDT

Thu Apr 18, 9:10pm EDT

Thu Apr 18, 8:10pm EDT

Thu Apr 18, 7:10pm EDT

Thu Apr 18, 6:10pm EDT

Thu Apr 18, 5:10pm EDT

Thu Apr 18, 4:10pm EDT

Thu Apr 18, 3:10pm EDT

Thu Apr 18, 2:10pm EDT

Thu Apr 18, 1:10pm EDT

Thu Apr 18, 12:10pm EDT

Thu Apr 18, 11:10am EDT

Thu Apr 18, 10:10am EDT

Thu Apr 18, 9:10am EDT

Thu Apr 18, 8:10am EDT

Thu Apr 18, 7:10am EDT

Thu Apr 18, 6:10am EDT

Thu Apr 18, 5:10am EDT

Thu Apr 18, 4:10am EDT

Thu Apr 18, 3:10am EDT

Thu Apr 18, 2:10am EDT

Thu Apr 18, 1:10am EDT

Thu Apr 18, 12:10am EDT

Wed Apr 17, 11:10pm EDT

Wed Apr 17, 10:10pm EDT

Wed Apr 17, 9:10pm EDT

Wed Apr 17, 8:10pm EDT

Wed Apr 17, 7:10pm EDT

Wed Apr 17, 6:10pm EDT

Wed Apr 17, 5:10pm EDT

Wed Apr 17, 4:10pm EDT

Wed Apr 17, 3:10pm EDT

Wed Apr 17, 2:10pm EDT

Wed Apr 17, 1:10pm EDT

Wed Apr 17, 12:10pm EDT

Wed Apr 17, 11:10am EDT

Wed Apr 17, 10:10am EDT

Wed Apr 17, 9:10am EDT

Wed Apr 17, 8:10am EDT

Wed Apr 17, 7:10am EDT

Wed Apr 17, 6:10am EDT

Wed Apr 17, 5:10am EDT

Wed Apr 17, 4:10am EDT

Wed Apr 17, 3:10am EDT

Wed Apr 17, 2:10am EDT

Wed Apr 17, 1:10am EDT

Wed Apr 17, 12:10am EDT

Tue Apr 16, 11:10pm EDT

Tue Apr 16, 10:10pm EDT

Tue Apr 16, 9:10pm EDT

Tue Apr 16, 8:10pm EDT

Tue Apr 16, 7:10pm EDT

Tue Apr 16, 6:10pm EDT

Tue Apr 16, 5:10pm EDT

Tue Apr 16, 4:10pm EDT

Tue Apr 16, 3:10pm EDT

Tue Apr 16, 2:10pm EDT

Tue Apr 16, 1:10pm EDT

Tue Apr 16, 12:10pm EDT

Tue Apr 16, 11:10am EDT

Tue Apr 16, 10:10am EDT

Tue Apr 16, 9:10am EDT

Tue Apr 16, 8:10am EDT

Tue Apr 16, 7:10am EDT

Tue Apr 16, 6:10am EDT

Tue Apr 16, 5:10am EDT

Tue Apr 16, 4:10am EDT

Tue Apr 16, 3:10am EDT

Tue Apr 16, 2:10am EDT

Tue Apr 16, 1:10am EDT

Tue Apr 16, 12:10am EDT

Mon Apr 15, 11:10pm EDT

Mon Apr 15, 10:10pm EDT

Mon Apr 15, 9:10pm EDT

Mon Apr 15, 8:10pm EDT

Mon Apr 15, 7:10pm EDT

Mon Apr 15, 6:10pm EDT

Mon Apr 15, 5:10pm EDT

Mon Apr 15, 4:10pm EDT

Mon Apr 15, 3:10pm EDT

Mon Apr 15, 2:10pm EDT

Mon Apr 15, 1:10pm EDT

Mon Apr 15, 12:10pm EDT

Mon Apr 15, 11:10am EDT

Mon Apr 15, 10:10am EDT